CZ-4C DEB, 45483

Orbit data source: Space-Track

CZ-4C DEB, 45483 is space debris in LEO originally from a launch on Tue, 10 Apr 2018 UTC launched from the Jiuquan Satellite Launch Center, China (JSC). Debris objects in space refer to the collection of defunct objects orbiting the Earth. Examples of debris include non-operational satellites, rocket bodies, and fragments generated from explosions, collisions, or faulty payload assembly.

Loading next visibility...
Identifier
45483, 2018-034L
Orbit
LEO
Last TLE update
1 day ago
Origin
Manufacturer
Unknown
Mission
Spacecraft
Bus & Motor
Unknown
Mass
Unknown
Launch date (UTC)
2018-04-10 (7 years ago)
Launch vehicle
Unknown
Launch site
Jiuquan Satellite Launch Center, China (JSC)
Object type
Payload
Rocket body
Debris
Shape & HBR
Unknown
Radar Cross Section
Small (<0.1 m²)

Expand to show TLE details & history

TLE from 1 day ago
0 CZ-4C DEB
1 45483U 18034L   25128.09397205  .00000047  00000-0  19944-3 0  9994
2 45483  63.4005  68.8421 0234591   6.0356 354.3408 13.44256954310056
Epoch: 2025-05-08T02:15Z
Definitive object data (Epoch: 2025-05-08T02:15:19.185Z)
Latitude
-0.00008°
Longitude
168.84271°
Altitude
920.831 km
Speed
7.478 km/s
True Right ascension
04h 35m 22s
True Declination
0° 00' 00"
Sunlit
Object was in daylight at TLE epoch
Visualization TLE readout
Latitude
-30.91436°
Longitude
3.22504°
Altitude
1,256.558 km
Speed
7.152 km/s
Apparent Right ascension
20h 44m 16s
Apparent Declination
-57° 48' 21"
Sunlit
Object is in full shadow
Visualization observer readout
Local Sidereal Time
14:15:08
Azimuth
138.895° SSE
Elevation
-36.499°
Doppler factor
1
Orbital elements
Apogee altitude
1,267.542 km
Perigee altitude
917.043 km
Semi-major axis
7,470.43 km
Eccentricity
0.0234591
Inclination
63.4005°
RAAN
68.8421°
Arg. of periapsis
6.0356°
True anomaly
354.06776°
Mean anomaly
354.3408°
Eccentric anomaly
354.20509°
Mean motion
3.36144 °/min
BSTAR
0.00019944
Orbital period
107.1 mins
Loading maneuver chart data...
Loading SW <> Apogee altitude chart data...
Loading historical data...
Loading historical data...
Loading historical data...
Loading historical data...
Loading historical data...
Loading historical data...
Loading historical data...

CZ-4C DEB Visibility forecast

Observer location: undefined°, undefined°

Span
Click to sort rows by Start time (UTC) header in descending order
Start Az.
Max El. time (UTC)
Max El. Az.
Max El.
End time (UTC)
End Az.
13 mins2025-05-09 07:23:21.362Z312.752° NW2025-05-09 07:30:21.362Z238.54° WSW34.315°2025-05-09 07:36:21.362Z179.883° S
10 mins2025-05-09 21:14:21.362Z192.345° SSW2025-05-09 21:18:21.362Z127.479° SE40.91°2025-05-09 21:24:21.362Z41.312° NE
8 mins2025-05-09 23:06:21.362Z276.301° WNW2025-05-09 23:09:21.362Z315.886° NNW25.118°2025-05-09 23:14:21.362Z13.367° NNE
11 mins2025-05-10 04:45:21.362Z347.345° N2025-05-10 04:50:21.362Z40.542° NE26.904°2025-05-10 04:56:21.362Z98.413° ESE
|